GORIZONT 20 [-]

Last updated on Jan. 26, 2020, 4:40 a.m. UTC

1 20659U 90054A   20025.42883897 -.00000186  00000-0  00000-0 0  9994
2 20659  14.7768 354.8319 0001655 153.1415 212.1762  1.00320208108294
UTC
Height (km)
Latitude
Longitude
Inclination
Orbital Period
UTC large
Height (km)
Speed (km/s)
/
Latitude / Longitude
Inclination (degrees)
Orbital Period (minutes)
Azimuth
Elevation
Range (km)
Doppler Factor
iOS Compass Heading
iOS Angle

Next 30 passes for location: Hong Kong

Rise time Rise Azimuth (degrees) Set time Set Azimuth (degrees) Duration Max altitude (degrees)

No matching passes for this satellites